STARLINK-1892, 46743

Orbit data source: Space-Track

STARLINK-1892, 46743 is a payload satellite owned by SpaceX/Seattle (US) in LEO that was launched on Sat, 24 Oct 2020 UTC via an FALCON 9 launch vehicle from the Air Force Eastern Test Range (AFETR). Payload-class satellites include a variety of spacecraft equipped with specific instruments for various scientific and technological missions. These include communications satellites like Starlink; space stations such as the ISS; scientific satellites like the Hubble; Earth observation satellites from companies like Planet Labs, Umbra, and HawkEye 360; GPS; miniature CubeSats for education and research; and military/defense satellites.

Loading next visibility...
Identifier
46743, 2020-074E
Orbit
LEO
Country
Flag of USUS
Related business
Manufacturer
SpaceX/Seattle
Mission
Operational Commercial Communications
Bus & Motor
STARLINK, Unknown motor
Mass
260 kg wet, ~248 kg dry
Launch date (UTC)
2020-10-24 (5 years ago)
Launch vehicle
FALCON 9
Launch site
Air Force Eastern Test Range (AFETR)
Object type
Payload
Rocket body
Debris
Shape & HBR
Box + 1 Pan, 10.1 m
Radar Cross Section
13.562 m², Large (>1 m²)

Expand to show TLE details & history
Last TLE update: 10 hours ago

TLE from 10 hours ago
0 STARLINK-1892
1 46743U 20074E   25299.50001156  .00080122  00000-0  45604-2 0  9996
2 46743  53.0544 203.9419 0000450 120.7829 238.1299 15.12144716  5824
Epoch: 2025-10-26T12:00Z
TLE epoch observation values (Epoch: 2025-10-26T12:00:00.998Z)
Latitude
-0.95745°
Longitude
-11.89378°
Altitude
530.835 km
Speed
7.598 km/s
True Right ascension
13h 32m 54s
True Declination
0° 57' 06"
Sunlit
Object was in daylight at epoch
Visualization orbit readout
Latitude
Unknown
Longitude
Unknown
Altitude
Unknown
Speed
Unknown
Apparent Right ascension
Unknown
Apparent Declination
Unknown
Sunlit
N/A
Visualization observer readout
Local Sidereal Time
17:42:10
Azimuth
Unknown
Elevation
Unknown
Doppler factor
Unknown
Orbital elements
Apogee altitude
530.243 km
Perigee altitude
529.621 km
Semi-major axis
6,908.069 km
Eccentricity
0.00005
Inclination
53.0544°
RAAN
203.9419°
Arg. of periapsis
120.7829°
True anomaly
238.12552°
Mean anomaly
238.1299°
Eccentric anomaly
238.12771°
Mean motion
3.78014 °/min
Orbital period
95.23 mins
BSTAR
0.0045604
Loading maneuver chart data...
Computing Atmospheric mass density...

Documentation

Showing up to 5 results
|